Total_Precipitation_Accumulation
0.56 0.64 0.64 0.58 0.53 0.80 1.06 1.20 1.06 1.24 1.32 1.10 0.91 0.87 0.84 0.87 1.02 1.11 1.03 1.16 1.08 0.95 1.02 1.08 0.96 0.81 0.72 0.65 0.62 0.58 0.54 0.57 0.55 0.44 0.35 0.30 0.27 0.29 0.30 0.32 0.32 0.27 0.24
0.97 1.04 1.00 0.93 0.82 0.92 1.12 1.26 1.24 1.37 1.24 1.17 0.81 0.80 0.82 0.90 1.01 1.01 0.93 1.26 1.12 0.88 0.86 0.93 0.92 0.85 0.77 0.73 0.67 0.59 0.51 0.52 0.50 0.41 0.34 0.32 0.27 0.24 0.26 0.32 0.35 0.31 0.23
1.36 1.35 1.21 1.08 1.12 1.24 1.31 1.28 1.26 1.31 1.09 0.98 0.80 0.89 0.87 0.79 0.73 0.73 0.74 0.89 0.92 0.74 0.61 0.61 0.71 0.76 0.80 0.85 0.82 0.78 0.63 0.50 0.41 0.33 0.29 0.25 0.22 0.19 0.21 0.25 0.32 0.33 0.26
1.54 1.56 1.27 1.06 1.24 1.35 1.33 1.29 1.16 1.19 1.09 1.04 0.97 0.91 0.92 0.85 0.65 0.60 0.60 0.58 0.58 0.50 0.52 0.50 0.53 0.59 0.74 0.89 0.94 0.97 0.84 0.60 0.44 0.35 0.29 0.24 0.19 0.15 0.14 0.17 0.24 0.28 0.24
1.56 1.66 1.40 1.25 1.34 1.30 1.19 1.13 1.25 1.40 1.28 1.23 1.17 0.98 0.82 0.70 0.55 0.43 0.37 0.32 0.35 0.40 0.49 0.53 0.43 0.44 0.64 0.90 1.04 1.10 1.04 0.80 0.55 0.41 0.36 0.30 0.24 0.19 0.14 0.12 0.12 0.15 0.17
1.37 1.46 1.28 1.23 1.35 1.31 1.15 1.19 1.27 1.35 1.17 1.20 1.14 0.86 0.70 0.51 0.46 0.35 0.25 0.21 0.19 0.17 0.25 0.40 0.53 0.44 0.50 0.68 0.87 1.00 1.05 0.95 0.74 0.55 0.47 0.40 0.35 0.27 0.19 0.13 0.09 0.09 0.10
1.05 1.20 1.08 1.16 1.23 1.15 1.05 1.06 1.11 1.12 0.94 1.16 1.23 0.76 0.46 0.38 0.30 0.24 0.22 0.19 0.15 0.15 0.19 0.32 0.41 0.45 0.46 0.47 0.63 0.72 0.98 1.09 0.94 0.70 0.56 0.48 0.43 0.36 0.25 0.18 0.14 0.10 0.10
1.00 0.96 0.95 0.96 1.00 1.03 0.92 0.87 0.96 0.94 0.77 0.98 1.06 0.88 0.52 0.32 0.19 0.13 0.14 0.13 0.14 0.19 0.21 0.28 0.37 0.41 0.39 0.46 0.55 0.43 0.59 0.86 0.97 0.90 0.74 0.58 0.51 0.45 0.36 0.29 0.23 0.18 0.13
1.16 1.11 1.01 0.93 0.88 0.91 0.89 0.85 0.90 0.89 0.77 0.78 0.87 0.97 0.71 0.40 0.28 0.15 0.16 0.22 0.28 0.33 0.28 0.28 0.32 0.37 0.39 0.49 0.57 0.62 0.41 0.55 0.81 1.09 1.02 0.78 0.58 0.45 0.38 0.39 0.37 0.28 0.20
1.35 1.22 1.10 0.92 0.79 0.77 0.80 0.74 0.77 0.83 0.82 0.70 0.68 0.73 0.73 0.70 0.63 0.32 0.16 0.19 0.35 0.40 0.37 0.33 0.35 0.39 0.42 0.51 0.66 0.94 0.80 0.63 0.70 1.01 1.15 1.01 0.76 0.55 0.47 0.50 0.64 0.59 0.37
1.09 0.95 0.88 0.81 0.72 0.66 0.65 0.69 0.78 0.84 0.84 0.73 0.68 0.66 0.68 0.75 0.74 0.63 0.37 0.33 0.37 0.35 0.33 0.35 0.39 0.47 0.54 0.67 0.93 1.15 1.33 1.10 0.92 0.83 0.86 0.89 0.88 0.75 0.63 0.69 1.02 1.19 0.96
0.67 0.65 0.63 0.65 0.64 0.63 0.62 0.62 0.68 0.76 0.82 0.84 0.82 0.83 0.87 0.84 0.82 0.87 0.73 0.62 0.57 0.47 0.46 0.53 0.60 0.73 0.81 0.88 0.99 1.19 1.18 1.20 1.16 1.06 0.96 0.86 0.82 0.83 0.83 0.90 1.16 1.43 1.53
0.46 0.50 0.53 0.57 0.58 0.62 0.68 0.75 0.75 0.75 0.82 0.90 0.92 0.97 1.03 1.03 1.03 1.05 0.99 0.85 0.78 0.73 0.78 0.79 0.78 0.89 0.87 0.92 0.99 0.91 0.74 0.80 0.84 0.84 0.83 0.78 0.75 0.79 0.85 0.87 1.01 1.24 1.50
0.46 0.50 0.56 0.61 0.61 0.63 0.64 0.73 0.77 0.84 0.90 0.93 0.93 1.05 1.12 1.07 1.15 1.20 1.17 1.11 1.00 0.98 1.08 1.11 0.91 0.82 0.81 0.86 0.90 0.77 0.69 0.61 0.48 0.42 0.41 0.44 0.48 0.56 0.67 0.81 0.92 0.97 1.07
0.50 0.55 0.62 0.70 0.73 0.74 0.75 0.78 0.79 0.90 1.07 1.14 1.13 1.15 1.19 1.17 1.20 1.25 1.27 1.24 1.19 1.12 1.16 1.17 0.89 0.75 0.70 0.71 0.79 0.81 0.87 0.66 0.38 0.28 0.26 0.26 0.28 0.33 0.39 0.52 0.64 0.77 0.88
0.55 0.59 0.63 0.66 0.71 0.73 0.75 0.79 0.85 0.95 1.10 1.16 1.24 1.33 1.32 1.27 1.30 1.32 1.29 1.30 1.32 1.30 1.20 1.09 0.87 0.75 0.70 0.60 0.63 0.61 0.63 0.48 0.30 0.25 0.24 0.24 0.22 0.23 0.26 0.35 0.44 0.53 0.64
0.54 0.60 0.57 0.52 0.49 0.54 0.66 0.79 0.87 0.95 1.04 1.07 1.15 1.17 1.15 1.17 1.20 1.14 1.17 1.22 1.27 1.32 1.17 1.07 0.97 0.91 0.85 0.72 0.61 0.50 0.41 0.32 0.30 0.27 0.25 0.24 0.24 0.24 0.23 0.24 0.30 0.38 0.48
0.51 0.56 0.53 0.48 0.47 0.53 0.65 0.78 0.94 1.14 1.27 1.23 1.16 1.07 1.00 1.04 1.10 1.11 1.16 1.15 1.12 1.21 1.14 1.07 1.06 1.00 0.90 0.73 0.61 0.55 0.44 0.38 0.39 0.38 0.29 0.25 0.24 0.25 0.24 0.23 0.27 0.31 0.41
0.51 0.52 0.53 0.57 0.67 0.76 0.86 0.97 1.02 1.16 1.21 1.13 1.08 1.01 0.95 0.93 0.95 1.01 1.09 1.12 1.04 1.03 1.05 1.02 1.01 0.97 0.89 0.74 0.59 0.53 0.48 0.54 0.56 0.46 0.32 0.26 0.23 0.24 0.25 0.23 0.28 0.36 0.49
0.37 0.47 0.59 0.76 0.87 0.92 0.95 1.01 0.99 0.95 0.94 0.87 0.81 0.77 0.82 0.92 0.96 0.90 0.88 0.89 0.91 0.91 0.88 0.86 0.89 0.91 0.86 0.77 0.63 0.56 0.59 0.61 0.61 0.49 0.42 0.34 0.27 0.22 0.22 0.20 0.20 0.31 0.44
0.31 0.44 0.60 0.70 0.69 0.71 0.78 0.86 0.85 0.81 0.76 0.70 0.61 0.48 0.49 0.67 0.82 0.83 0.77 0.74 0.71 0.73 0.72 0.72 0.74 0.77 0.77 0.73 0.62 0.53 0.53 0.63 0.66 0.64 0.62 0.54 0.44 0.38 0.37 0.34 0.27 0.27 0.30
0.31 0.39 0.48 0.48 0.45 0.35 0.34 0.38 0.45 0.51 0.54 0.53 0.45 0.39 0.40 0.45 0.49 0.52 0.58 0.61 0.61 0.61 0.63 0.66 0.69 0.68 0.67 0.63 0.60 0.57 0.57 0.64 0.79 0.86 0.89 0.90 0.74 0.69 0.69 0.67 0.51 0.30 0.20
0.32 0.37 0.37 0.38 0.39 0.38 0.26 0.19 0.19 0.30 0.36 0.37 0.35 0.36 0.30 0.29 0.30 0.27 0.28 0.30 0.35 0.40 0.46 0.55 0.62 0.62 0.62 0.57 0.57 0.57 0.62 0.80 0.99 1.09 1.09 1.20 1.01 0.85 0.79 0.73 0.60 0.40 0.27
0.40 0.43 0.40 0.39 0.42 0.40 0.28 0.20 0.16 0.18 0.28 0.31 0.30 0.28 0.25 0.28 0.26 0.23 0.19 0.19 0.20 0.22 0.27 0.32 0.43 0.52 0.57 0.59 0.56 0.52 0.51 0.60 0.75 0.81 0.86 1.08 1.12 1.09 0.98 0.73 0.59 0.50 0.39
0.49 0.46 0.44 0.45 0.48 0.48 0.34 0.22 0.17 0.24 0.34 0.33 0.32 0.28 0.25 0.25 0.23 0.19 0.19 0.18 0.18 0.20 0.21 0.24 0.30 0.38 0.44 0.47 0.51 0.49 0.43 0.40 0.41 0.36 0.35 0.61 0.84 0.96 1.09 1.02 0.75 0.64 0.51
0.62 0.55 0.51 0.52 0.56 0.62 0.52 0.30 0.21 0.31 0.47 0.48 0.47 0.41 0.32 0.27 0.22 0.14 0.15 0.18 0.17 0.17 0.17 0.17 0.19 0.24 0.29 0.33 0.35 0.36 0.36 0.35 0.31 0.26 0.18 0.21 0.33 0.50 0.69 0.78 0.73 0.70 0.70